User: anonymous   Login
Location: Theydon Bois
(51.6750°N, 0.1050°E)
Time: 16:30:06
(UTC+01:00)
Language:

Meteor 2-1 Rocket - Orbit

View from above orbital plane
View from above orbital plane
View from above satellite
View from above satellite

Ground track
Ground track

The orbit data is extracted from the following two-line orbital elements,

1  8027U 75064B   17294.95587771 +.00000105 +00000-0 +54872-4 0  9997
2  8027 081.2934 293.5877 0055416 270.3192 089.1628 14.07309108170041
Epoch (UTC): 21 October 2017 22:56:27
Eccentricity: 0.0055416
inclination: 81.2934°
perigee height: 828 km
apogee height: 909 km
right ascension of ascending node: 293.5877°
argument of perigee: 270.3192°
revolutions per day: 14.07309108
mean anomaly at epoch: 89.1628°
orbit number at epoch: 17004

The dashed part of the orbit path shows where the satellite is in the earth's shadow,  

DLR